QPF
0.00 0.00 0.00 0.00 0.00 0.00 0.00 0.00 0.00 0.00 0.00 0.00 0.00 0.00 0.00 0.00 0.00 0.00 0.00 0.00 0.00 0.00 0.00 0.00 0.00 0.00 0.00 0.00 0.00 0.00 0.00 0.00 0.00 0.00 0.00 0.00 0.00 0.00 0.00 0.00 0.00 0.00 0.00
0.00 0.00 0.00 0.00 0.00 0.00 0.00 0.00 0.00 0.00 0.00 0.00 0.00 0.00 0.00 0.00 0.00 0.00 0.00 0.00 0.00 0.00 0.00 0.00 0.00 0.00 0.00 0.00 0.00 0.00 0.00 0.00 0.00 0.00 0.00 0.00 0.00 0.00 0.00 0.00 0.00 0.00 0.00
0.00 0.00 0.00 0.00 0.00 0.00 0.00 0.00 0.00 0.00 0.00 0.00 0.00 0.00 0.00 0.00 0.00 0.00 0.00 0.00 0.00 0.00 0.00 0.00 0.00 0.00 0.00 0.00 0.00 0.00 0.00 0.00 0.00 0.00 0.00 0.00 0.00 0.00 0.00 0.00 0.00 0.00 0.00
0.00 0.00 0.00 0.00 0.00 0.00 0.00 0.00 0.00 0.00 0.00 0.00 0.00 0.00 0.00 0.00 0.00 0.00 0.00 0.00 0.00 0.00 0.00 0.00 0.00 0.00 0.00 0.00 0.00 0.00 0.00 0.00 0.00 0.00 0.00 0.00 0.00 0.00 0.00 0.00 0.00 0.00 0.00
0.00 0.00 0.00 0.00 0.00 0.00 0.00 0.00 0.00 0.00 0.00 0.00 0.00 0.00 0.00 0.00 0.00 0.00 0.00 0.00 0.00 0.00 0.00 0.00 0.00 0.00 0.00 0.00 0.00 0.00 0.00 0.00 0.00 0.00 0.00 0.00 0.00 0.00 0.00 0.00 0.00 0.00 0.00
0.00 0.00 0.00 0.00 0.00 0.00 0.00 0.00 0.00 0.00 0.00 0.00 0.00 0.00 0.00 0.00 0.00 0.00 0.00 0.00 0.00 0.00 0.00 0.00 0.00 0.00 0.00 0.00 0.00 0.00 0.00 0.00 0.01 0.01 0.01 0.00 0.00 0.00 0.00 0.00 0.00 0.00 0.00
0.00 0.00 0.00 0.00 0.00 0.00 0.00 0.00 0.00 0.00 0.00 0.00 0.00 0.00 0.00 0.00 0.00 0.00 0.00 0.00 0.00 0.00 0.00 0.00 0.00 0.00 0.00 0.00 0.00 0.00 0.00 0.00 0.01 0.01 0.02 0.01 0.00 0.00 0.00 0.01 0.01 0.01 0.01
0.00 0.00 0.00 0.00 0.00 0.00 0.00 0.00 0.00 0.00 0.00 0.00 0.00 0.00 0.00 0.00 0.00 0.00 0.00 0.00 0.00 0.00 0.00 0.00 0.00 0.00 0.00 0.00 0.00 0.00 0.00 0.00 0.00 0.00 0.01 0.01 0.01 0.01 0.02 0.03 0.03 0.03 0.01
0.00 0.00 0.00 0.00 0.00 0.00 0.00 0.00 0.00 0.00 0.00 0.00 0.00 0.00 0.00 0.00 0.00 0.00 0.00 0.00 0.00 0.00 0.00 0.00 0.00 0.00 0.00 0.00 0.01 0.01 0.01 0.00 0.00 0.01 0.01 0.01 0.01 0.01 0.02 0.03 0.04 0.04 0.02
0.00 0.00 0.00 0.00 0.00 0.00 0.00 0.00 0.00 0.00 0.00 0.00 0.00 0.00 0.00 0.00 0.00 0.00 0.00 0.00 0.00 0.00 0.00 0.00 0.00 0.00 0.00 0.00 0.01 0.02 0.02 0.01 0.01 0.01 0.01 0.00 0.00 0.00 0.01 0.01 0.02 0.03 0.03
0.00 0.00 0.00 0.00 0.00 0.00 0.00 0.00 0.00 0.00 0.00 0.00 0.00 0.00 0.00 0.00 0.00 0.00 0.00 0.00 0.00 0.00 0.00 0.00 0.00 0.00 0.00 0.01 0.02 0.02 0.01 0.01 0.01 0.01 0.00 0.00 0.00 0.00 0.00 0.00 0.01 0.02 0.03
0.00 0.00 0.00 0.00 0.00 0.00 0.00 0.00 0.00 0.00 0.00 0.00 0.00 0.00 0.00 0.00 0.00 0.00 0.00 0.00 0.00 0.00 0.00 0.00 0.00 0.00 0.01 0.01 0.00 0.00 0.00 0.00 0.00 0.00 0.00 0.00 0.00 0.00 0.00 0.00 0.00 0.00 0.01
0.00 0.00 0.00 0.00 0.00 0.00 0.00 0.00 0.00 0.00 0.00 0.00 0.00 0.00 0.00 0.00 0.00 0.00 0.00 0.00 0.00 0.00 0.00 0.00 0.00 0.00 0.00 0.00 0.00 0.00 0.00 0.00 0.00 0.00 0.00 0.00 0.00 0.00 0.00 0.00 0.00 0.00 0.00
0.00 0.00 0.00 0.00 0.00 0.00 0.00 0.00 0.00 0.00 0.00 0.00 0.00 0.00 0.00 0.00 0.00 0.00 0.00 0.00 0.00 0.00 0.00 0.00 0.00 0.00 0.00 0.00 0.00 0.00 0.00 0.00 0.00 0.00 0.00 0.00 0.00 0.00 0.00 0.00 0.00 0.00 0.01
0.00 0.00 0.00 0.00 0.00 0.00 0.00 0.00 0.00 0.00 0.00 0.00 0.00 0.00 0.00 0.00 0.00 0.00 0.00 0.00 0.01 0.01 0.01 0.00 0.00 0.00 0.00 0.00 0.00 0.00 0.00 0.00 0.00 0.00 0.00 0.00 0.00 0.00 0.00 0.00 0.00 0.01 0.01
0.00 0.00 0.00 0.00 0.00 0.00 0.00 0.00 0.00 0.00 0.00 0.00 0.00 0.00 0.01 0.00 0.00 0.01 0.01 0.01 0.01 0.02 0.02 0.01 0.00 0.00 0.00 0.00 0.00 0.00 0.00 0.00 0.00 0.00 0.00 0.00 0.00 0.00 0.00 0.00 0.00 0.01 0.01
0.00 0.00 0.00 0.00 0.00 0.00 0.00 0.00 0.00 0.00 0.00 0.00 0.00 0.01 0.01 0.01 0.01 0.02 0.02 0.02 0.02 0.02 0.02 0.01 0.00 0.00 0.00 0.00 0.00 0.00 0.00 0.00 0.00 0.00 0.00 0.00 0.00 0.00 0.01 0.01 0.00 0.01 0.01
0.00 0.00 0.00 0.00 0.00 0.00 0.00 0.00 0.00 0.00 0.00 0.00 0.00 0.00 0.01 0.01 0.02 0.02 0.02 0.03 0.03 0.02 0.01 0.00 0.00 0.00 0.00 0.00 0.00 0.00 0.00 0.00 0.00 0.00 0.00 0.00 0.00 0.01 0.01 0.01 0.01 0.01 0.01
0.00 0.00 0.00 0.00 0.00 0.00 0.00 0.00 0.00 0.00 0.00 0.00 0.00 0.00 0.00 0.01 0.01 0.01 0.02 0.03 0.02 0.01 0.00 0.00 0.00 0.00 0.00 0.00 0.00 0.00 0.00 0.00 0.00 0.00 0.00 0.00 0.00 0.01 0.01 0.01 0.01 0.01 0.01
0.00 0.00 0.00 0.00 0.00 0.00 0.00 0.00 0.00 0.00 0.00 0.00 0.00 0.00 0.00 0.00 0.01 0.00 0.01 0.01 0.01 0.01 0.00 0.00 0.00 0.00 0.00 0.00 0.00 0.00 0.00 0.00 0.00 0.00 0.00 0.00 0.00 0.01 0.01 0.01 0.01 0.01 0.01
0.00 0.00 0.00 0.00 0.00 0.00 0.00 0.00 0.00 0.00 0.00 0.00 0.00 0.00 0.01 0.01 0.01 0.00 0.00 0.00 0.00 0.00 0.00 0.00 0.00 0.00 0.00 0.00 0.00 0.00 0.00 0.00 0.00 0.00 0.00 0.00 0.00 0.01 0.01 0.01 0.01 0.01 0.01
0.00 0.00 0.00 0.00 0.00 0.00 0.00 0.00 0.00 0.00 0.00 0.00 0.00 0.00 0.01 0.01 0.01 0.01 0.01 0.01 0.01 0.01 0.00 0.00 0.00 0.00 0.00 0.00 0.00 0.00 0.00 0.00 0.00 0.00 0.00 0.00 0.00 0.00 0.01 0.01 0.01 0.01 0.01
0.00 0.00 0.00 0.00 0.00 0.00 0.00 0.00 0.00 0.00 0.00 0.00 0.00 0.00 0.00 0.01 0.01 0.01 0.01 0.01 0.01 0.01 0.01 0.01 0.00 0.00 0.00 0.00 0.00 0.00 0.00 0.00 0.00 0.00 0.01 0.00 0.00 0.00 0.01 0.01 0.01 0.01 0.01
0.00 0.00 0.00 0.00 0.00 0.00 0.00 0.00 0.00 0.00 0.00 0.00 0.00 0.00 0.00 0.01 0.01 0.01 0.01 0.01 0.01 0.01 0.01 0.01 0.00 0.00 0.00 0.00 0.00 0.00 0.00 0.00 0.00 0.00 0.01 0.01 0.01 0.01 0.01 0.00 0.00 0.00 0.00
0.00 0.00 0.00 0.00 0.00 0.00 0.00 0.00 0.00 0.00 0.00 0.00 0.00 0.00 0.00 0.01 0.01 0.01 0.01 0.01 0.01 0.01 0.01 0.00 0.00 0.00 0.00 0.00 0.00 0.00 0.00 0.00 0.00 0.00 0.01 0.01 0.01 0.00 0.00 0.00 0.00 0.00 0.00
0.00 0.00 0.00 0.00 0.00 0.00 0.00 0.00 0.00 0.00 0.00 0.00 0.00 0.00 0.00 0.01 0.01 0.01 0.01 0.01 0.01 0.01 0.00 0.00 0.00 0.00 0.00 0.00 0.00 0.00 0.00 0.00 0.00 0.01 0.01 0.01 0.01 0.00 0.00 0.00 0.00 0.00 0.00
MSLP
1025.54 1026.09 1026.64 1027.19 1027.71 1028.22 1028.73 1029.24 1029.76 1030.30 1030.84 1031.39 1031.89 1032.34 1032.71 1032.99 1033.18 1033.31 1033.39 1033.47 1033.57 1033.71 1033.89 1034.09 1034.29 1034.44 1034.51 1034.45 1034.26 1033.94 1033.49 1032.94 1032.33 1031.69 1031.04 1030.39 1029.76 1029.12 1028.48 1027.82 1027.13 1026.41 1025.66
1025.49 1026.07 1026.63 1027.17 1027.67 1028.16 1028.65 1029.15 1029.67 1030.21 1030.76 1031.31 1031.83 1032.29 1032.66 1032.95 1033.15 1033.28 1033.36 1033.44 1033.53 1033.65 1033.82 1034.00 1034.18 1034.33 1034.41 1034.39 1034.25 1033.99 1033.62 1033.15 1032.61 1032.02 1031.40 1030.75 1030.08 1029.38 1028.65 1027.90 1027.11 1026.30 1025.49
1025.28 1025.92 1026.51 1027.06 1027.57 1028.06 1028.54 1029.03 1029.55 1030.09 1030.65 1031.19 1031.71 1032.17 1032.54 1032.83 1033.04 1033.17 1033.26 1033.33 1033.42 1033.52 1033.66 1033.82 1033.98 1034.11 1034.19 1034.18 1034.08 1033.87 1033.56 1033.16 1032.69 1032.14 1031.54 1030.89 1030.19 1029.43 1028.64 1027.81 1026.95 1026.08 1025.22
1024.87 1025.58 1026.22 1026.81 1027.34 1027.85 1028.34 1028.85 1029.37 1029.91 1030.46 1031.01 1031.52 1031.97 1032.34 1032.63 1032.84 1032.98 1033.07 1033.15 1033.22 1033.31 1033.43 1033.56 1033.68 1033.79 1033.85 1033.84 1033.75 1033.57 1033.30 1032.95 1032.51 1032.00 1031.42 1030.76 1030.04 1029.25 1028.41 1027.53 1026.63 1025.72 1024.84
1024.27 1025.05 1025.75 1026.38 1026.96 1027.50 1028.03 1028.56 1029.10 1029.66 1030.21 1030.75 1031.25 1031.69 1032.06 1032.34 1032.55 1032.70 1032.80 1032.87 1032.94 1033.02 1033.11 1033.21 1033.29 1033.36 1033.39 1033.36 1033.27 1033.10 1032.85 1032.51 1032.10 1031.61 1031.04 1030.38 1029.64 1028.84 1027.98 1027.08 1026.16 1025.25 1024.37
1023.53 1024.36 1025.11 1025.79 1026.43 1027.02 1027.59 1028.16 1028.74 1029.31 1029.88 1030.42 1030.91 1031.34 1031.70 1031.98 1032.19 1032.34 1032.44 1032.52 1032.58 1032.65 1032.71 1032.78 1032.83 1032.86 1032.85 1032.79 1032.67 1032.49 1032.24 1031.91 1031.51 1031.03 1030.46 1029.81 1029.08 1028.28 1027.42 1026.52 1025.61 1024.72 1023.86
1022.72 1023.58 1024.37 1025.09 1025.78 1026.43 1027.06 1027.68 1028.30 1028.90 1029.48 1030.03 1030.51 1030.93 1031.28 1031.55 1031.75 1031.90 1032.01 1032.08 1032.15 1032.20 1032.25 1032.29 1032.31 1032.30 1032.25 1032.16 1032.02 1031.82 1031.56 1031.23 1030.83 1030.36 1029.81 1029.17 1028.45 1027.67 1026.83 1025.95 1025.07 1024.20 1023.36
1021.93 1022.79 1023.59 1024.35 1025.08 1025.78 1026.47 1027.15 1027.82 1028.46 1029.06 1029.60 1030.08 1030.48 1030.81 1031.06 1031.25 1031.39 1031.50 1031.57 1031.64 1031.69 1031.73 1031.75 1031.75 1031.72 1031.65 1031.53 1031.37 1031.15 1030.89 1030.56 1030.17 1029.71 1029.18 1028.56 1027.87 1027.12 1026.31 1025.46 1024.60 1023.76 1022.95
1021.24 1022.07 1022.87 1023.65 1024.41 1025.16 1025.90 1026.63 1027.33 1028.00 1028.61 1029.15 1029.61 1029.99 1030.29 1030.51 1030.68 1030.81 1030.91 1030.99 1031.06 1031.12 1031.17 1031.19 1031.19 1031.15 1031.07 1030.95 1030.78 1030.57 1030.30 1029.99 1029.62 1029.18 1028.67 1028.09 1027.43 1026.70 1025.93 1025.11 1024.27 1023.44 1022.64
1020.68 1021.47 1022.26 1023.03 1023.81 1024.60 1025.37 1026.14 1026.86 1027.54 1028.15 1028.67 1029.10 1029.44 1029.70 1029.89 1030.03 1030.14 1030.24 1030.32 1030.41 1030.49 1030.56 1030.61 1030.62 1030.61 1030.55 1030.44 1030.29 1030.09 1029.85 1029.55 1029.21 1028.80 1028.32 1027.78 1027.15 1026.46 1025.71 1024.91 1024.09 1023.26 1022.44
1020.26 1021.01 1021.76 1022.53 1023.32 1024.11 1024.91 1025.68 1026.42 1027.08 1027.66 1028.14 1028.52 1028.81 1029.02 1029.17 1029.28 1029.37 1029.46 1029.56 1029.67 1029.79 1029.90 1029.99 1030.06 1030.08 1030.06 1029.99 1029.88 1029.72 1029.51 1029.25 1028.94 1028.57 1028.13 1027.61 1027.02 1026.35 1025.62 1024.83 1024.01 1023.17 1022.33
1019.95 1020.66 1021.38 1022.14 1022.91 1023.71 1024.50 1025.26 1025.97 1026.59 1027.12 1027.55 1027.86 1028.08 1028.23 1028.33 1028.41 1028.49 1028.59 1028.71 1028.86 1029.02 1029.19 1029.35 1029.48 1029.57 1029.61 1029.60 1029.54 1029.43 1029.26 1029.05 1028.77 1028.44 1028.03 1027.54 1026.97 1026.32 1025.60 1024.81 1023.98 1023.11 1022.24
1019.73 1020.40 1021.09 1021.82 1022.59 1023.36 1024.12 1024.84 1025.50 1026.06 1026.52 1026.87 1027.11 1027.26 1027.34 1027.40 1027.45 1027.52 1027.63 1027.78 1027.98 1028.20 1028.44 1028.67 1028.88 1029.05 1029.16 1029.22 1029.22 1029.17 1029.06 1028.88 1028.65 1028.34 1027.96 1027.49 1026.94 1026.30 1025.57 1024.78 1023.92 1023.03 1022.12
1019.58 1020.21 1020.87 1021.58 1022.31 1023.05 1023.76 1024.43 1025.02 1025.50 1025.88 1026.14 1026.30 1026.38 1026.40 1026.42 1026.44 1026.51 1026.64 1026.82 1027.07 1027.36 1027.67 1027.98 1028.27 1028.51 1028.71 1028.84 1028.90 1028.90 1028.84 1028.70 1028.50 1028.22 1027.86 1027.40 1026.85 1026.21 1025.48 1024.67 1023.80 1022.88 1021.94
1019.49 1020.09 1020.73 1021.40 1022.09 1022.78 1023.43 1024.03 1024.54 1024.94 1025.23 1025.41 1025.50 1025.51 1025.49 1025.47 1025.48 1025.55 1025.69 1025.91 1026.20 1026.54 1026.91 1027.29 1027.65 1027.97 1028.23 1028.42 1028.55 1028.60 1028.57 1028.47 1028.29 1028.03 1027.68 1027.23 1026.68 1026.03 1025.30 1024.47 1023.59 1022.65 1021.68
1019.51 1020.08 1020.68 1021.31 1021.95 1022.58 1023.17 1023.70 1024.13 1024.46 1024.67 1024.78 1024.80 1024.77 1024.71 1024.66 1024.66 1024.73 1024.88 1025.12 1025.44 1025.81 1026.22 1026.64 1027.05 1027.42 1027.73 1027.97 1028.14 1028.23 1028.24 1028.17 1028.02 1027.77 1027.42 1026.98 1026.43 1025.78 1025.03 1024.20 1023.30 1022.35 1021.36
1019.68 1020.20 1020.76 1021.34 1021.93 1022.50 1023.02 1023.48 1023.85 1024.11 1024.27 1024.33 1024.31 1024.24 1024.16 1024.10 1024.08 1024.14 1024.29 1024.52 1024.84 1025.21 1025.63 1026.06 1026.48 1026.87 1027.21 1027.48 1027.69 1027.81 1027.85 1027.81 1027.67 1027.44 1027.11 1026.67 1026.13 1025.48 1024.73 1023.90 1022.99 1022.03 1021.03
1020.03 1020.51 1021.01 1021.53 1022.06 1022.57 1023.03 1023.43 1023.74 1023.96 1024.08 1024.12 1024.08 1023.99 1023.90 1023.82 1023.79 1023.83 1023.94 1024.14 1024.42 1024.76 1025.14 1025.55 1025.95 1026.33 1026.67 1026.96 1027.18 1027.33 1027.40 1027.39 1027.28 1027.07 1026.76 1026.34 1025.81 1025.17 1024.43 1023.60 1022.70 1021.73 1020.72
1020.56 1020.98 1021.42 1021.88 1022.34 1022.79 1023.21 1023.56 1023.84 1024.03 1024.14 1024.17 1024.12 1024.04 1023.93 1023.84 1023.78 1023.77 1023.83 1023.97 1024.17 1024.44 1024.75 1025.09 1025.44 1025.79 1026.11 1026.40 1026.63 1026.81 1026.91 1026.93 1026.85 1026.68 1026.40 1026.00 1025.50 1024.88 1024.16 1023.34 1022.45 1021.49 1020.49
1021.25 1021.59 1021.97 1022.36 1022.76 1023.16 1023.52 1023.84 1024.10 1024.29 1024.39 1024.43 1024.39 1024.31 1024.20 1024.08 1023.98 1023.91 1023.89 1023.94 1024.04 1024.20 1024.41 1024.66 1024.94 1025.23 1025.52 1025.79 1026.03 1026.22 1026.36 1026.41 1026.38 1026.25 1026.01 1025.65 1025.18 1024.59 1023.90 1023.11 1022.24 1021.30 1020.32
1022.00 1022.28 1022.58 1022.91 1023.25 1023.59 1023.92 1024.21 1024.46 1024.64 1024.76 1024.81 1024.78 1024.70 1024.58 1024.43 1024.28 1024.14 1024.03 1023.96 1023.95 1023.99 1024.08 1024.23 1024.42 1024.65 1024.89 1025.14 1025.38 1025.59 1025.75 1025.85 1025.86 1025.77 1025.58 1025.26 1024.83 1024.28 1023.63 1022.88 1022.05 1021.16 1020.21
1022.72 1022.94 1023.17 1023.43 1023.71 1024.01 1024.30 1024.57 1024.80 1024.99 1025.12 1025.18 1025.16 1025.08 1024.95 1024.77 1024.56 1024.35 1024.14 1023.96 1023.83 1023.75 1023.73 1023.77 1023.87 1024.03 1024.22 1024.45 1024.68 1024.90 1025.08 1025.21 1025.26 1025.21 1025.06 1024.79 1024.40 1023.90 1023.30 1022.60 1021.83 1021.00 1020.12
1023.33 1023.48 1023.66 1023.86 1024.08 1024.33 1024.58 1024.82 1025.04 1025.22 1025.34 1025.41 1025.40 1025.32 1025.16 1024.96 1024.70 1024.42 1024.13 1023.86 1023.62 1023.44 1023.32 1023.27 1023.29 1023.39 1023.54 1023.73 1023.95 1024.17 1024.36 1024.50 1024.57 1024.55 1024.43 1024.19 1023.85 1023.40 1022.85 1022.22 1021.53 1020.79 1020.01
1023.75 1023.86 1023.98 1024.12 1024.29 1024.48 1024.69 1024.90 1025.09 1025.25 1025.37 1025.43 1025.41 1025.32 1025.16 1024.92 1024.64 1024.31 1023.97 1023.63 1023.32 1023.07 1022.87 1022.75 1022.71 1022.75 1022.86 1023.02 1023.21 1023.41 1023.58 1023.71 1023.78 1023.77 1023.66 1023.45 1023.15 1022.74 1022.27 1021.72 1021.12 1020.49 1019.83
1023.98 1024.04 1024.12 1024.21 1024.33 1024.47 1024.62 1024.78 1024.93 1025.07 1025.16 1025.20 1025.18 1025.08 1024.90 1024.66 1024.36 1024.01 1023.65 1023.28 1022.94 1022.64 1022.41 1022.25 1022.16 1022.16 1022.22 1022.34 1022.48 1022.64 1022.77 1022.87 1022.91 1022.88 1022.77 1022.57 1022.29 1021.94 1021.53 1021.08 1020.59 1020.08 1019.57
1024.03 1024.06 1024.10 1024.15 1024.22 1024.30 1024.40 1024.50 1024.61 1024.70 1024.75 1024.77 1024.73 1024.62 1024.44 1024.20 1023.91 1023.57 1023.21 1022.84 1022.50 1022.20 1021.95 1021.77 1021.66 1021.62 1021.63 1021.69 1021.78 1021.87 1021.94 1021.98 1021.97 1021.90 1021.76 1021.57 1021.31 1021.01 1020.67 1020.31 1019.95 1019.58 1019.22
Thickness
5521 5515 5508 5500 5493 5486 5478 5470 5462 5453 5445 5436 5427 5419 5410 5400 5391 5382 5372 5363 5353 5344 5336 5327 5318 5311 5303 5294 5287 5279 5271 5262 5264 5284 5285 5279 5276 5276 5281 5285 5291 5298 5305
5509 5501 5493 5486 5479 5471 5463 5455 5447 5438 5428 5419 5410 5401 5391 5382 5372 5362 5352 5343 5333 5323 5315 5306 5297 5289 5281 5273 5266 5258 5250 5242 5238 5247 5260 5254 5251 5249 5253 5259 5265 5270 5277
5495 5487 5479 5471 5464 5456 5448 5440 5431 5421 5411 5402 5392 5383 5373 5363 5353 5343 5334 5324 5314 5305 5295 5286 5277 5269 5262 5254 5246 5239 5233 5227 5221 5221 5232 5232 5230 5227 5231 5237 5242 5247 5251
5483 5474 5466 5459 5451 5443 5434 5424 5415 5405 5395 5385 5375 5365 5355 5345 5335 5325 5316 5306 5296 5287 5278 5269 5260 5252 5244 5237 5230 5224 5218 5213 5208 5206 5210 5213 5212 5210 5210 5216 5225 5229 5232
5471 5463 5455 5446 5438 5428 5418 5408 5398 5389 5379 5369 5358 5348 5338 5328 5318 5309 5300 5290 5281 5271 5262 5253 5245 5237 5229 5223 5217 5211 5205 5199 5194 5191 5194 5196 5195 5193 5193 5196 5203 5213 5217
5461 5452 5443 5434 5424 5414 5403 5393 5383 5372 5362 5352 5342 5332 5322 5312 5303 5294 5284 5275 5266 5257 5249 5240 5232 5224 5217 5211 5205 5199 5193 5187 5181 5178 5180 5179 5180 5177 5177 5180 5185 5194 5205
5450 5440 5430 5421 5410 5400 5389 5378 5368 5357 5346 5336 5326 5316 5307 5298 5288 5279 5270 5261 5252 5243 5235 5228 5220 5212 5205 5199 5194 5188 5182 5174 5169 5166 5166 5166 5165 5164 5164 5169 5172 5178 5186
5437 5428 5418 5407 5396 5385 5374 5364 5353 5342 5332 5322 5313 5303 5293 5284 5274 5266 5256 5248 5240 5232 5224 5216 5208 5201 5193 5187 5184 5179 5174 5167 5161 5157 5155 5155 5154 5153 5153 5157 5162 5170 5176
5427 5416 5405 5395 5383 5371 5361 5350 5340 5329 5319 5309 5300 5290 5280 5272 5262 5253 5243 5235 5228 5221 5214 5206 5197 5190 5183 5177 5173 5168 5165 5160 5154 5150 5147 5144 5144 5144 5143 5147 5151 5156 5166
5417 5405 5393 5382 5372 5360 5350 5339 5327 5316 5306 5296 5287 5278 5269 5259 5249 5240 5231 5224 5216 5211 5204 5196 5188 5181 5174 5167 5162 5156 5153 5150 5146 5143 5139 5136 5134 5134 5134 5135 5139 5144 5151
5401 5390 5379 5369 5358 5348 5336 5324 5312 5301 5290 5281 5273 5266 5256 5248 5237 5229 5221 5213 5206 5199 5193 5187 5179 5171 5165 5159 5152 5145 5140 5138 5133 5128 5125 5125 5125 5125 5126 5127 5128 5130 5135
5384 5373 5364 5353 5343 5332 5320 5308 5297 5286 5274 5265 5256 5250 5243 5236 5227 5219 5211 5205 5198 5190 5185 5178 5170 5162 5157 5150 5143 5136 5131 5125 5117 5113 5112 5112 5114 5116 5117 5118 5119 5121 5123
5365 5356 5346 5335 5325 5315 5304 5293 5280 5269 5260 5252 5243 5238 5233 5226 5218 5210 5203 5196 5189 5183 5178 5170 5162 5155 5148 5140 5131 5125 5119 5111 5105 5102 5101 5102 5104 5105 5107 5110 5113 5115 5119
5347 5337 5326 5316 5306 5296 5287 5277 5266 5257 5247 5240 5233 5228 5222 5216 5208 5200 5192 5185 5179 5173 5167 5161 5154 5145 5137 5130 5121 5113 5106 5101 5096 5093 5093 5094 5095 5096 5098 5101 5104 5108 5113
5328 5318 5308 5298 5289 5279 5270 5263 5255 5248 5238 5230 5223 5216 5208 5202 5197 5189 5180 5174 5167 5160 5153 5148 5140 5131 5123 5116 5109 5103 5097 5092 5088 5086 5084 5085 5086 5088 5090 5092 5094 5097 5100
5308 5299 5290 5280 5271 5262 5253 5244 5240 5234 5227 5220 5213 5204 5197 5192 5185 5179 5172 5166 5159 5152 5145 5138 5130 5121 5113 5106 5099 5093 5088 5083 5080 5078 5077 5076 5077 5079 5082 5084 5086 5088 5091
5291 5282 5273 5265 5255 5247 5238 5230 5222 5218 5213 5207 5199 5192 5186 5179 5172 5166 5160 5154 5149 5142 5135 5128 5118 5110 5102 5095 5089 5084 5080 5076 5073 5070 5069 5069 5069 5070 5072 5076 5079 5081 5083
5270 5263 5255 5247 5239 5230 5222 5215 5208 5200 5193 5187 5182 5176 5170 5164 5158 5152 5145 5140 5136 5130 5122 5113 5104 5096 5089 5083 5078 5074 5071 5068 5065 5063 5062 5061 5061 5062 5065 5068 5071 5072 5075
5249 5241 5234 5227 5219 5212 5204 5197 5190 5183 5176 5169 5162 5156 5150 5145 5140 5135 5128 5122 5119 5112 5104 5097 5090 5082 5076 5072 5068 5064 5061 5059 5057 5056 5055 5055 5055 5056 5059 5062 5064 5066 5068
5226 5221 5213 5206 5199 5191 5185 5178 5171 5164 5157 5150 5143 5136 5130 5123 5117 5112 5106 5100 5095 5091 5086 5080 5074 5068 5063 5060 5057 5055 5053 5051 5050 5050 5050 5050 5050 5050 5053 5055 5058 5060 5063
5204 5198 5192 5184 5178 5171 5164 5158 5151 5144 5137 5131 5124 5118 5114 5107 5101 5094 5088 5081 5076 5070 5065 5060 5057 5053 5050 5048 5047 5046 5045 5045 5044 5044 5044 5044 5044 5045 5047 5049 5052 5055 5057
5183 5176 5169 5163 5157 5151 5144 5138 5131 5125 5118 5112 5106 5099 5095 5088 5081 5074 5068 5062 5057 5051 5045 5041 5039 5038 5038 5037 5038 5038 5038 5039 5039 5039 5039 5039 5039 5040 5041 5044 5047 5050 5052
5162 5155 5149 5143 5137 5131 5124 5117 5111 5105 5099 5092 5087 5081 5074 5066 5060 5054 5048 5042 5036 5031 5027 5023 5022 5023 5025 5027 5029 5031 5032 5034 5035 5034 5034 5034 5034 5035 5037 5039 5042 5044 5046
5141 5136 5130 5123 5117 5111 5105 5098 5093 5087 5081 5075 5069 5062 5056 5049 5043 5036 5030 5024 5019 5014 5010 5008 5009 5011 5014 5018 5021 5025 5027 5029 5030 5031 5030 5030 5030 5032 5033 5036 5038 5039 5041
5121 5115 5110 5104 5098 5092 5086 5081 5075 5070 5064 5059 5053 5047 5041 5034 5029 5022 5016 5010 5005 5001 4998 4998 4999 5002 5007 5011 5015 5019 5023 5025 5027 5028 5028 5028 5029 5031 5032 5033 5035 5035 5036
5101 5096 5090 5085 5079 5074 5068 5063 5058 5054 5048 5044 5039 5033 5027 5022 5017 5011 5005 4999 4995 4992 4990 4991 4993 4997 5002 5006 5011 5016 5019 5023 5026 5027 5027 5028 5029 5031 5033 5033 5033 5032 5032